Regional Weather Roundup
Issued by NWS

Home | Current Version | Previous Version | Graphics & Text | Print | Product List | Glossary On
Versions: 1 2 3 4 5 6 7 8 9 10 11 12 13 14 15 16 17 18 19 20 21 22 23 24 25 26 27 28 29 30 31 32 33 34 35 36 37 38 39 40 41 42 43 44 45 46 47 48 49 50
000
ASUS43 KMPX 290910
RWRMN
WEATHER ROUNDUP FOR MINNESOTA
NATIONAL WEATHER SERVICE TWIN CITIES/CHANHASSEN MN
400 AM CDT TUE JUL 29 2014


NOTE: "FAIR" INDICATES FEW OR NO CLOUDS BELOW 12,000 FEET WITH NO
SIGNIFICANT WEATHER AND/OR OBSTRUCTIONS TO VISIBILITY. N/A MEANS
CURRENT SKY AND/OR WEATHER CONDITIONS ARE NOT AVAILABLE.

MNZ060>063-068>070-291000-
   Twin Cities Metro

CITY           SKY/WX    TMP DP  RH WIND       PRES   REMARKS
TWIN CITIES    CLEAR     61  56  83 NW6       30.12F
ST PAUL        CLEAR     61  55  81 NW3       30.12S
CRYSTAL        CLEAR     62  54  74 NW6       30.11F
BLAINE         CLEAR     61  57  88 W5        30.11F
LAKEVILLE      CLEAR     57  55  94 W5        30.12F
EDEN PRAIRIE   CLEAR     62  56  80 NW3       30.12S
SOUTH ST PAUL  CLEAR     62  55  79 W3        30.12S
LAKE ELMO      FAIR      57  55  94 W3        30.12S
$$
MNZ001>005-007-008-013>017-022>024-027-028-291000-
   Northwest Minnesota

CITY           SKY/WX    TMP DP  RH WIND       PRES   REMARKS
BEMIDJI        CLEAR     51  50  95 NW6       30.15F
HALLOCK        CLEAR     54  52  94 CALM      30.16F
ROSEAU         CLEAR     57  52  82 W6        30.14F
WARROAD        CLEAR     57  54  88 W6        30.14S
THIEF RVR FALL CLEAR     57  54  88 CALM      30.17S
CROOKSTON      CLEAR     54  52  94 CALM      30.18S
FOSSTON        CLEAR     48  46  93 CALM      30.17F
DETROIT LAKES  CLEAR     57  54  88 NW6       30.19S
MOORHEAD       CLEAR     55  55 100 CALM      30.19S
PARK RAPIDS    CLEAR     50  49  96 NW5       30.16F
$$
MNZ006-009>011-018-025>026-291000-
   North Central Minnesota

CITY           SKY/WX    TMP DP  RH WIND       PRES   REMARKS
BAUDETTE       PTCLDY    58  56  93 W3        30.13F
FLAG ISLAND    CLEAR     63  57  82 NW16      30.11S
INTL FALLS     PTCLDY    54  54 100 CALM      30.09F
WASKISH        CLEAR     61  57  88 NW8       30.13F
BIG FORK       PTCLDY    54  52  94 CALM      30.13S
LONGVILLE      CLEAR     55  55 100 CALM      30.13F
GRAND RAPIDS   PTCLDY    57  54  88 NW6       30.12F
CRANE LAKE     MOCLDY    52  52 100 CALM      30.10F
ORR            CLEAR     52  50  93 CALM      30.08F
COOK           CLEAR     52  52 100 CALM      30.10F
$$
MNZ012-019>021-037-291000-
   Northeast Minnesota

CITY           SKY/WX    TMP DP  RH WIND       PRES   REMARKS
DULUTH         PTCLDY    55  52  89 NW5       30.09F
ELY            PTCLDY    55  52  88 W5        30.08S
HIBBING        CLEAR     49  47  93 CALM      30.11S
EVELETH        CLEAR     52  52 100 CALM      30.10F
DULUTH HARBOR  MOCLDY    64  57  77 W6        30.08S
TWO HARBORS    CLEAR     57  50  77 NW3       30.05F
SILVER BAY     PTCLDY    57  55  94 CALM      30.03F
GRAND MARAIS     N/A     63  53  70 N13G24    29.98F
G MARAIS ARPRT MOCLDY    55  50  82 NW9       30.04S
$$
MNZ029>031-032-039>041-046>048-054>057-064-291000-
   West Central Minnesota

CITY           SKY/WX    TMP DP  RH WIND       PRES   REMARKS
FERGUS FALLS   CLEAR     54  52  94 CALM      30.19S
WHEATON        CLEAR     54  52  94 W3        30.21S
MORRIS         CLEAR     52  50  93 NW5       30.18S
ALEXANDRIA     CLEAR     56  53  90 W6        30.19S
ELBOW LAKE     FAIR      55  53  92 NW6       30.18F
WADENA         CLEAR     54  52  94 CALM      30.16F
GLENWOOD       CLEAR     55  54  94 W6        30.18S
APPLETON       CLEAR     54  50  87 W5        30.18S
BENSON         CLEAR     52  52 100 NW1       30.18F
ORTONVILLE     CLEAR     57  54  88 NW3       30.19S
MADISON        CLEAR     54  52  94 W3        30.19S
WILLMAR        FAIR      55  52  88 W3        30.19S
$$
MNZ033>034-036-042>043-049>051-058-059-291000-
   Central Minnesota

CITY           SKY/WX    TMP DP  RH WIND       PRES   REMARKS
ST CLOUD       CLEAR     58  53  84 NW3       30.14S
SAUK CENTRE    FAIR      52  51  96 CALM      30.17S
PAYNESVILLE    CLEAR     49  50 100 SW5       30.17S
AITKIN         CLEAR     54  48  82 CALM      30.11F
PINE RIVER     CLEAR     54  52  94 W3        30.17F
BRAINERD       CLEAR     59  53  80 NW3       30.14F
STAPLES        CLEAR     52  52 100 W3        30.16S
LONG PRAIRIE   FAIR      55  52  88 W5        30.17S
LITTLE FALLS   CLEAR     54  52  94 CALM      30.15F
LITCHFIELD     PTCLDY    61  57  88 W5        30.16F
BUFFALO        CLEAR     60  54  79 W3        30.15S
MAPLE LAKE     CLEAR     59  55  85 CALM      30.15F
$$
MNZ037-044-045-052-053-291000-
   East Central Minnesota

CITY           SKY/WX    TMP DP  RH WIND       PRES   REMARKS
PRINCETON      CLEAR     57  54  88 CALM      30.13S
MORA           CLEAR     54  52  94 CALM      30.13F
CAMBRIDGE      CLEAR     59  50  72 NW3       30.10S
RUSH CITY      MOCLDY    56  54  92 CALM      30.11S
MOOSE LAKE     CLEAR     57  54  88 NW3       30.09S
HINCKLEY       FAIR      59  55  88 NW7       30.11S
CLOQUET        CLEAR     55  52  88 CALM      30.10F
MCGREGOR         N/A     54  52  94 CALM      30.12F VSB 1
$$
MNZ071>073-080-081-089-090-097-098-291000-
   Southwest Minnesota

CITY           SKY/WX    TMP DP  RH WIND       PRES   REMARKS
MONTEVIDEO     CLEAR     54  54 100 NW7       30.19S
GRANITE FALLS  CLEAR     51  49  96 W6        30.20S
CANBY          CLEAR     54  51  89 W5        30.20F
MARSHALL       CLEAR     52  48  87 W8        30.18F
REDWOOD FALLS  CLEAR     55  52  89 NW7       30.17S
OLIVIA         CLEAR     54  52  94 NW6       30.17S
PIPESTONE      CLEAR     52  50  93 CALM      30.21F
WINDOM         CLEAR     54  50  87 W5        30.19S
WORTHINGTON    CLEAR     52  48  87 NW7       30.21S
JACKSON        CLEAR     54  50  87 W5        30.19F
TRACY          CLEAR     57  52  81 W7        30.20F
SLAYTON        CLEAR     51  50  95 CALM      30.21F
$$
MNZ065>067-074>077-082>085-091>093-291000-
   South Central Minnesota

CITY           SKY/WX    TMP DP  RH WIND       PRES   REMARKS
MANKATO        PTCLDY    57  52  82 W5        30.15S
NEW ULM        CLEAR     54  54 100 W7        30.16S
ST JAMES       CLEAR     55  52  88 W5        30.18S
FAIRMONT       CLEAR     55  48  76 NW7       30.17S
GLENCOE        PTCLDY    59  54  82 W5        30.14F
FARIBAULT      CLEAR     63  54  72 NW5       30.14S
OWATONNA       CLEAR     54  52  94 SW3       30.14S
WASECA         CLEAR     50  46  87 SW3       30.16S
ALBERT LEA     CLEAR     57  54  88 CALM      30.15S
$$
MNZ078>079-086>088-094>096-291000-
   Southeast Minnesota

CITY           SKY/WX    TMP DP  RH WIND       PRES   REMARKS
ROCHESTER      CLEAR     55  52  89 W8        30.13F
RED WING       CLEAR     55  54  94 CALM      30.10S
STANTON        CLEAR     55  52  89 CALM      30.11F
DODGE CENTER   CLEAR     59  55  88 NW8       30.13S
WINONA         CLEAR     55  54  94 CALM      30.09S
AUSTIN         CLEAR     55  54  94 NW5       30.13F
PRESTON        CLEAR     55  55 100 W7        30.13S
$$
ABBREVIATIONS USED IN REMARKS
   TC - TEMPERATURES IN CELSIUS
  WCI - WIND CHILL INDEX
   HX - HEAT INDEX
  VSB - VISIBILITY
$$


USA.gov is the U.S. government's official web portal to all federal, state and local government web resources and services.